DW5595 Weather Reports


Display with metric or nautical units.
time (UTC)temp
F
wind
direction
speed
MPH
gust
MPH
rain 1hr
in
rain 24hr
in
rain mn
in
humidity
%
barometer
mb
20260904174557 93 42 0.0 4.0 0.00 0.00 0.00 55 1016.8
20260904173032 93 360 2.0 5.0 0.00 0.00 0.00 58 1017.0
20260904171530 93 32 0.0 3.0 0.00 0.00 0.00 58 1017.2
20260904170043 92 309 0.0 2.0 0.00 0.00 0.00 56 1017.3
20260904164524 92 13 2.0 3.0 0.00 0.00 0.00 60 1017.4
20260904163018 91 21 1.0 3.0 0.00 0.00 0.00 59 1017.6
20260904161519 91 147 3.0 6.0 0.00 0.00 0.00 64 1017.7
20260904160032 89 28 0.0 2.0 0.00 0.00 0.00 64 1017.9
20260904154531 89 10 1.0 3.0 0.00 0.00 0.00 70 1017.9
20260904153033 89 15 1.0 3.0 0.00 0.00 0.00 71 1018.0
20260904151530 87 23 0.0 2.0 0.00 0.00 0.00 72 1018.0
20260904150032 85 146 0.0 2.0 0.00 0.00 0.00 76 1018.1
20260904144517 83 352 1.0 2.0 0.00 0.00 0.00 79 1018.0
20260904143017 82 24 0.0 3.0 0.00 0.00 0.00 82 1018.1
20260904141515 80 352 0.0 0.0 0.00 0.00 0.00 85 1018.0
20260904140030 79 15 0.0 2.0 0.00 0.00 0.00 88 1018.0
20260904134531 77 17 0.0 0.0 0.00 0.00 0.00 90 1017.9
20260904133033 76 17 0.0 1.0 0.00 0.00 0.00 93 1017.8
20260904131531 74 352 0.0 0.0 0.00 0.00 0.00 94 1017.7
20260904130023 73 352 0.0 0.0 0.00 0.00 0.00 96 1017.9
20260904124537 72 312 0.0 0.0 0.00 0.00 0.00 97 1017.7
20260904123014 71 312 0.0 1.0 0.00 0.00 0.00 97 1018.0
20260904121533 70 312 0.0 0.0 0.00 0.00 0.00 97 1018.0
20260904120012 70 143 0.0 0.0 0.00 0.00 0.00 96 1018.0
20260904114535 69 143 0.0 0.0 0.00 0.00 0.00 96 1017.8
20260904113032 69 143 0.0 0.0 0.00 0.00 0.00 96 1017.8
20260904111526 69 143 0.0 0.0 0.00 0.00 0.00 96 1017.6
20260904110024 69 143 0.0 0.0 0.00 0.00 0.00 96 1017.5
20260904104532 69 143 0.0 1.0 0.00 0.00 0.00 96 1017.4
20260904103012 69 92 0.0 1.0 0.00 0.00 0.00 96 1017.1
20260904101512 69 56 0.0 0.0 0.00 0.00 0.00 96 1017.2
20260904100030 69 57 0.0 0.0 0.00 0.00 0.00 96 1016.9
20260904094533 70 22 1.0 2.0 0.00 0.00 0.00 95 1016.8
20260904093051 70 171 0.0 0.0 0.00 0.00 0.00 95 1016.7
20260904091523 70 171 0.0 0.0 0.00 0.00 0.00 95 1016.7
20260904090018 70 171 0.0 0.0 0.00 0.00 0.00 95 1016.7
20260904084516 70 171 0.0 0.0 0.00 0.00 0.00 95 1016.8
20260904083012 71 171 0.0 0.0 0.00 0.00 0.00 95 1016.7
20260904081532 71 171 0.0 0.0 0.00 0.00 0.00 95 1016.7
20260904080031 71 171 0.0 0.0 0.00 0.00 0.00 95 1016.7
20260904074527 71 171 0.0 0.0 0.00 0.00 0.00 95 1016.7
20260904073047 71 171 0.0 0.0 0.00 0.00 0.00 95 1016.7
20260904071524 72 171 0.0 0.0 0.00 0.00 0.00 95 1016.8
20260904070017 72 171 0.0 0.0 0.00 0.00 0.00 95 1016.8
20260904064533 72 171 0.0 0.0 0.00 0.00 0.00 95 1017.0
20260904063039 72 171 0.0 0.0 0.00 0.00 0.00 95 1017.2
20260904061533 72 171 0.0 0.0 0.00 0.00 0.00 95 1017.3
20260904060032 73 171 0.0 0.0 0.00 0.00 0.00 95 1017.6
20260904054530 73 171 0.0 0.0 0.00 0.00 0.00 95 1017.5
20260904053027 73 171 0.0 0.0 0.00 0.00 0.00 94 1017.7
20260904051525 73 171 0.0 0.0 0.00 0.00 0.00 94 1017.7
20260904050033 73 171 0.0 0.0 0.00 0.00 0.00 94 1017.8
20260904044536 74 261 0.0 0.0 0.00 0.00 0.00 94 1017.9
20260904043030 74 261 0.0 0.0 0.00 0.00 0.00 94 1017.9
20260904041533 74 261 0.0 0.0 0.00 0.00 0.00 94 1017.9
20260904040031 74 261 0.0 0.0 0.00 0.00 0.00 93 1017.8
20260904034535 75 261 0.0 0.0 0.00 0.00 0.00 93 1018.0
20260904033030 75 261 0.0 0.0 0.00 0.00 0.00 93 1018.0
20260904031533 75 261 0.0 0.0 0.00 0.00 0.00 92 1017.9
20260904030034 76 261 0.0 0.0 0.00 0.00 0.00 92 1018.0
20260904024534 76 261 0.0 0.0 0.00 0.00 0.00 92 1018.0
20260904023028 76 261 0.0 0.0 0.00 0.00 0.00 90 1018.2
20260904021533 77 159 0.0 0.0 0.00 0.00 0.00 91 1018.4
20260904020026 77 159 0.0 0.0 0.00 0.00 0.00 90 1018.2
20260904014557 77 159 0.0 0.0 0.00 0.00 0.00 89 1018.0
20260904013019 78 159 0.0 0.0 0.00 0.00 0.00 88 1017.7
20260904011533 78 159 0.0 0.0 0.00 0.00 0.00 86 1017.5
20260904010012 79 159 0.0 0.0 0.00 0.00 0.00 86 1017.4
20260904004508 80 159 0.0 0.0 0.00 0.00 0.00 84 1017.2
20260904003009 81 159 0.0 0.0 0.00 0.00 0.00 83 1016.8
20260904001534 82 159 0.0 0.0 0.00 0.00 0.00 80 1016.6
20260904000026 83 159 0.0 0.0 0.00 0.00 0.00 75 1016.4
20260903234518 85 159 0.0 0.0 0.00 0.00 0.00 74 1016.3
20260903233015 86 159 0.0 0.0 0.00 0.00 0.00 72 1016.2
20260903231512 87 159 0.0 0.0 0.00 0.00 0.00 67 1016.2
20260903230018 88 159 0.0 0.0 0.00 0.00 0.00 64 1016.1
20260903224532 89 143 0.0 2.0 0.00 0.00 0.00 61 1016.1
20260903223033 90 170 0.0 2.0 0.00 0.00 0.00 57 1016.1
20260903221528 91 159 1.0 3.0 0.00 0.00 0.00 56 1016.1
20260903220040 91 195 2.0 3.0 0.00 0.00 0.00 56 1016.1
20260903214534 92 130 1.0 4.0 0.00 0.00 0.00 57 1016.3
20260903213036 92 160 2.0 3.0 0.00 0.00 0.00 56 1016.2
20260903211512 91 161 0.0 0.0 0.00 0.00 0.00 55 1016.4
20260903210033 91 346 0.0 2.0 0.00 0.00 0.00 59 1016.4
20260903204530 92 202 0.0 4.0 0.00 0.00 0.00 53 1016.6
20260903203025 93 143 2.0 7.0 0.00 0.00 0.00 54 1016.7
20260903201536 93 148 2.0 4.0 0.00 0.00 0.00 51 1016.8
20260903200018 93 153 0.0 7.0 0.00 0.00 0.00 52 1017.0
20260903194534 94 145 1.0 3.0 0.00 0.00 0.00 53 1017.1
20260903193035 94 5 0.0 3.0 0.00 0.00 0.00 51 1017.4
20260903191533 94 111 1.0 2.0 0.00 0.00 0.00 52 1017.4
20260903190031 95 15 1.0 3.0 0.00 0.00 0.00 50 1017.5
20260903184528 94 266 0.0 6.0 0.00 0.00 0.00 51 1017.7
20260903183026 95 167 0.0 4.0 0.00 0.00 0.00 54 1017.9
20260903181531 94 11 1.0 3.0 0.00 0.00 0.00 49 1018.0
20260903180041 94 169 0.0 4.0 0.00 0.00 0.00 51 1018.3